UAE954 OMDB-OLBA

Flight info

Callsign UAE954
Flight time N/A
Altitude 40000
Route SENPA N571 ALPOB L768 VATIM L550 NOVPA J981 DATOK L550 STEPA L78 DESPO M31 KUKLA
Aircraft A388/J-SADE2E3FGHIJ3J4J5M1RWXY/LB1D1

Departure

Time 2026-05-07 19:08
Airport Dubai International Airport (OMDB)

Arrival

Time N/A
Airport Beirut Rafic Hariri International Airport (OLBA)
Time Latitude Longitude Altitude Speed Heading
2026-05-07 18:24 25.24777 55.36501 28 ft 0 kts 211°
2026-05-07 18:42 25.24780 55.36503 26 ft 2 kts 211°
2026-05-07 18:42 25.24795 55.36512 26 ft 2 kts 210°
2026-05-07 18:43 25.24809 55.36521 26 ft 2 kts 208°
2026-05-07 18:43 25.24824 55.36529 25 ft 2 kts 204°
2026-05-07 18:43 25.24840 55.36534 25 ft 2 kts 196°
2026-05-07 18:43 25.24856 55.36534 24 ft 2 kts 167°
2026-05-07 18:44 25.24867 55.36525 25 ft 1 kts 130°
2026-05-07 18:44 25.24868 55.36523 25 ft 0 kts 129°
2026-05-07 18:44 25.24867 55.36524 25 ft 0 kts 129°
2026-05-07 18:50 25.24863 55.36529 25 ft 6 kts 128°
2026-05-07 18:51 25.24815 55.36633 27 ft 22 kts 97°
2026-05-07 18:51 25.24759 55.36817 27 ft 25 kts 112°
2026-05-07 18:51 25.24789 55.36953 28 ft 18 kts 40°
2026-05-07 18:51 25.24820 55.36982 29 ft 0 kts 34°
2026-05-07 18:54 25.24824 55.36985 30 ft 4 kts 34°
2026-05-07 18:54 25.24916 55.37051 35 ft 18 kts 32°
2026-05-07 18:55 25.25027 55.37127 31 ft 21 kts 31°
2026-05-07 18:55 25.25051 55.37143 30 ft 4 kts 31°
2026-05-07 18:55 25.25052 55.37144 30 ft 0 kts 31°
2026-05-07 18:56 25.25073 55.37158 30 ft 6 kts 31°
2026-05-07 18:56 25.25114 55.37185 31 ft 0 kts 31°
2026-05-07 18:59 25.25120 55.37192 31 ft 1 kts 69°
2026-05-07 19:00 25.25114 55.37212 31 ft 6 kts 153°
2026-05-07 19:00 25.25068 55.37216 30 ft 11 kts 154°
2026-05-07 19:00 25.24991 55.37334 30 ft 22 kts 121°
2026-05-07 19:00 25.24911 55.37484 30 ft 24 kts 120°
2026-05-07 19:01 25.24823 55.37650 30 ft 25 kts 122°
2026-05-07 19:01 25.24726 55.37804 30 ft 22 kts 123°
2026-05-07 19:01 25.24644 55.37948 30 ft 19 kts 121°
2026-05-07 19:01 25.24593 55.38041 30 ft 0 kts 121°
2026-05-07 19:02 25.24586 55.38054 30 ft 5 kts 121°
2026-05-07 19:02 25.24556 55.38108 29 ft 9 kts 121°
2026-05-07 19:02 25.24555 55.38111 29 ft 0 kts 121°
2026-05-07 19:04 25.24550 55.38119 29 ft 4 kts 121°
2026-05-07 19:04 25.24525 55.38165 29 ft 1 kts 121°
2026-05-07 19:05 25.24511 55.38190 29 ft 7 kts 121°
2026-05-07 19:05 25.24499 55.38214 29 ft 1 kts 107°
2026-05-07 19:06 25.24499 55.38226 29 ft 4 kts 69°
2026-05-07 19:06 25.24593 55.38315 27 ft 13 kts 27°
2026-05-07 19:06 25.24638 55.38317 27 ft 11 kts 317°
2026-05-07 19:07 25.24695 55.38213 29 ft 33 kts 307°
2026-05-07 19:07 25.24966 55.37734 35 ft 111 kts 301°
2026-05-07 19:07 25.25465 55.36837 35 ft 162 kts 301°
2026-05-07 19:07 25.26107 55.35705 358 ft 172 kts 303°
2026-05-07 19:08 25.26750 55.34608 928 ft 167 kts 303°
2026-05-07 19:08 25.27379 55.33573 1549 ft 161 kts 302°
2026-05-07 19:08 25.27980 55.32501 1951 ft 170 kts 299°
2026-05-07 19:08 25.28592 55.31320 2216 ft 181 kts 298°
2026-05-07 19:09 25.29227 55.30103 2542 ft 184 kts 296°
2026-05-07 19:09 25.29654 55.28766 2813 ft 187 kts 279°
2026-05-07 19:09 25.29754 55.27292 2920 ft 199 kts 273°
2026-05-07 19:09 25.29854 55.25666 3076 ft 222 kts 274°
2026-05-07 19:10 25.29987 55.23891 3303 ft 246 kts 274°
2026-05-07 19:10 25.30143 55.21938 3688 ft 261 kts 275°
2026-05-07 19:10 25.30307 55.19923 4311 ft 266 kts 275°
2026-05-07 19:10 25.30394 55.17920 5217 ft 254 kts 267°
2026-05-07 19:11 25.30241 55.15990 5981 ft 257 kts 264°
2026-05-07 19:11 25.30076 55.13984 6249 ft 278 kts 265°
2026-05-07 19:11 25.29911 55.11827 6808 ft 283 kts 265°
2026-05-07 19:11 25.29746 55.09649 7497 ft 285 kts 265°
2026-05-07 19:12 25.29579 55.07453 8181 ft 288 kts 265°
2026-05-07 19:12 25.29410 55.05236 8881 ft 290 kts 265°
2026-05-07 19:12 25.29238 55.03002 9592 ft 293 kts 265°
2026-05-07 19:12 25.29078 55.00935 10201 ft 297 kts 265°
2026-05-07 19:13 25.28891 54.98518 10429 ft 317 kts 265°
2026-05-07 19:13 25.28697 54.96014 10598 ft 336 kts 265°
2026-05-07 19:13 25.28504 54.93379 10886 ft 350 kts 266°
2026-05-07 19:13 25.28408 54.90672 11463 ft 354 kts 268°
2026-05-07 19:14 25.28355 54.87937 12055 ft 358 kts 268°
2026-05-07 19:14 25.28301 54.85177 12635 ft 362 kts 268°
2026-05-07 19:14 25.28236 54.82416 13242 ft 366 kts 268°
2026-05-07 19:14 25.28159 54.79558 13846 ft 369 kts 267°
2026-05-07 19:15 25.28096 54.76703 14411 ft 372 kts 270°
2026-05-07 19:15 25.28302 54.73875 14744 ft 377 kts 278°
2026-05-07 19:15 25.28884 54.71046 14822 ft 378 kts 285°
2026-05-07 19:15 25.29622 54.68255 14827 ft 378 kts 285°
2026-05-07 19:16 25.30336 54.65480 14826 ft 376 kts 285°
2026-05-07 19:16 25.30749 54.63854 14827 ft 375 kts 285°
2026-05-07 19:16 25.31452 54.61071 14830 ft 376 kts 284°
2026-05-07 19:16 25.32153 54.58285 14824 ft 377 kts 284°
2026-05-07 19:17 25.32856 54.55492 14822 ft 377 kts 284°
2026-05-07 19:17 25.33561 54.52694 14825 ft 377 kts 285°
2026-05-07 19:17 25.34295 54.49923 14822 ft 375 kts 286°
2026-05-07 19:17 25.35053 54.47153 14825 ft 376 kts 286°
2026-05-07 19:18 25.35812 54.44385 14823 ft 376 kts 286°
2026-05-07 19:18 25.36558 54.41651 14824 ft 376 kts 286°
2026-05-07 19:18 25.37310 54.38881 14824 ft 376 kts 285°
2026-05-07 19:18 25.38059 54.36107 14822 ft 376 kts 285°
2026-05-07 19:19 25.38805 54.33339 14822 ft 376 kts 285°
2026-05-07 19:19 25.39551 54.30567 14823 ft 376 kts 285°
2026-05-07 19:19 25.40294 54.27800 14823 ft 376 kts 285°
2026-05-07 19:19 25.41017 54.25014 14817 ft 376 kts 284°
2026-05-07 19:20 25.41706 54.22224 14819 ft 376 kts 284°
2026-05-07 19:20 25.42388 54.19434 14819 ft 375 kts 284°
2026-05-07 19:20 25.43074 54.16644 14821 ft 376 kts 284°
2026-05-07 19:20 25.43763 54.13852 14821 ft 376 kts 284°
2026-05-07 19:21 25.44453 54.11067 14820 ft 376 kts 284°
2026-05-07 19:21 25.45141 54.08277 14816 ft 376 kts 284°
2026-05-07 19:21 25.45814 54.05485 14820 ft 375 kts 283°
2026-05-07 19:21 25.46485 54.02690 14823 ft 376 kts 283°
2026-05-07 19:22 25.47153 53.99898 14820 ft 376 kts 283°
2026-05-07 19:22 25.47825 53.97099 14822 ft 376 kts 283°
2026-05-07 19:22 25.48487 53.94337 14819 ft 376 kts 283°
2026-05-07 19:22 25.49157 53.91546 14818 ft 376 kts 283°
2026-05-07 19:23 25.49836 53.88719 14819 ft 376 kts 283°
2026-05-07 19:23 25.50498 53.85958 14817 ft 375 kts 283°
2026-05-07 19:23 25.51167 53.83162 14820 ft 375 kts 283°
2026-05-07 19:23 25.51837 53.80365 14821 ft 375 kts 283°
2026-05-07 19:24 25.52505 53.77571 14820 ft 375 kts 283°
2026-05-07 19:24 25.53172 53.74776 14821 ft 375 kts 283°
2026-05-07 19:24 25.53839 53.71987 14821 ft 375 kts 283°
2026-05-07 19:24 25.54507 53.69198 14821 ft 375 kts 283°
2026-05-07 19:25 25.55178 53.66396 14821 ft 375 kts 283°
2026-05-07 19:25 25.55844 53.63609 14821 ft 374 kts 283°
2026-05-07 19:25 25.56510 53.60816 14823 ft 375 kts 283°
2026-05-07 19:25 25.57168 53.58061 14824 ft 375 kts 283°
2026-05-07 19:26 25.57834 53.55267 14825 ft 375 kts 283°
2026-05-07 19:26 25.58501 53.52466 14824 ft 374 kts 283°
2026-05-07 19:26 25.59166 53.49671 14823 ft 374 kts 283°
2026-05-07 19:26 25.59829 53.46881 14825 ft 375 kts 283°
2026-05-07 19:27 25.60492 53.44089 14827 ft 375 kts 283°
2026-05-07 19:27 25.61154 53.41297 14825 ft 375 kts 283°
2026-05-07 19:27 25.61808 53.38537 14830 ft 375 kts 283°
2026-05-07 19:27 25.62469 53.35741 14827 ft 375 kts 283°
2026-05-07 19:28 25.63129 53.32943 14826 ft 375 kts 283°
2026-05-07 19:28 25.63788 53.30146 14825 ft 375 kts 283°
2026-05-07 19:28 25.64446 53.27354 14828 ft 374 kts 283°
2026-05-07 19:28 25.65102 53.24566 14831 ft 374 kts 283°
2026-05-07 19:29 25.65759 53.21775 14834 ft 374 kts 283°
2026-05-07 19:29 25.66415 53.18983 14834 ft 374 kts 283°
2026-05-07 19:29 25.67071 53.16189 14827 ft 374 kts 283°
2026-05-07 19:29 25.67725 53.13398 14830 ft 374 kts 283°
2026-05-07 19:30 25.68379 53.10605 14832 ft 374 kts 283°
2026-05-07 19:30 25.69032 53.07817 14832 ft 374 kts 283°
2026-05-07 19:30 25.69685 53.05024 14834 ft 374 kts 283°
2026-05-07 19:30 25.70386 53.02243 14835 ft 375 kts 288°
2026-05-07 19:31 25.71403 52.99571 14833 ft 376 kts 296°
2026-05-07 19:31 25.72636 52.97019 14833 ft 376 kts 297°
2026-05-07 19:31 25.73841 52.94494 14833 ft 376 kts 296°
2026-05-07 19:31 25.75056 52.91925 14834 ft 376 kts 296°
2026-05-07 19:32 25.76267 52.89355 14834 ft 375 kts 296°
2026-05-07 19:32 25.77478 52.86785 14837 ft 375 kts 296°
2026-05-07 19:32 25.78688 52.84219 14833 ft 375 kts 296°
2026-05-07 19:32 25.79895 52.81658 14828 ft 375 kts 296°
2026-05-07 19:33 25.81103 52.79095 14832 ft 375 kts 296°
2026-05-07 19:33 25.82313 52.76526 14836 ft 375 kts 296°
2026-05-07 19:33 25.83520 52.73961 14833 ft 375 kts 296°
2026-05-07 19:33 25.84734 52.71383 14833 ft 375 kts 296°
2026-05-07 19:34 25.85925 52.68851 14832 ft 375 kts 296°
2026-05-07 19:34 25.87131 52.66287 14831 ft 375 kts 296°
2026-05-07 19:34 25.88337 52.63720 14831 ft 375 kts 296°